Flag for U.S.A. Weather past 2 weeks in Sevierville, Tennessee, U.S.A.

Now
45 °F

Mostly cloudy.


Feels Like: 39 °F
Forecast: 34 / 47 °F
Wind: 12 mph from Southwest

Location: McGhee Tyson Airport

Current Time: Dec 24, 2014 at 10:48:04 PM

Latest Report: Dec 24, 2014 at 9:53 PM


Visibility: 10 mi

Pressure: 29.85 "Hg

Humidity: 86%

Dew point: 41 °F

Location of SeviervilleLocation

Historic Weather in Sevierville — Graph

°F

Sevierville temperature yesterday

Maximum temperature yesterday: 53 °F (at 2:53 PM)
Minimum temperature yesterday: 48 °F (at 12:53 AM)
Average temperature yesterday: 50 °F

Past Weeks' High & Low Weather Summary

 TemperatureHumidityPressure
High59 °F (Dec 22, 2:53 PM)100% (Dec 15, 9:53 AM)30.41 "Hg (Dec 15, 9:53 AM)
Low22 °F (Dec 12, 5:53 AM)27% (Dec 12, 3:53 PM)29.51 "Hg (Dec 24, 2:53 PM)
Average41 °F76%30.11 "Hg
* Reported Dec 9 8:53 PM — Dec 24 8:53 PM, Sevierville, Weather by CustomWeather, © 2014

Note: Actual official high and low records may vary slightly from our data, if they occured in-between our weather recording intervals... More about our weather records

Advertising

Sevierville weather history for previous 24 hours

 ConditionsComfort  
Time TempWeatherWind HumidityBarometerVisibility
8:53 PM
Dec 24
46 °FMostly cloudy.13 mph83%29.81 "Hg10 mi
7:53 PM47 °FMostly cloudy.14 mph83%29.79 "Hg10 mi
6:53 PM48 °FMostly cloudy.13 mph86%29.75 "Hg10 mi
5:53 PM49 °FRain. Fog.15 mph86%29.70 "Hg5 mi
4:53 PM49 °FRain. Fog.18 mph90%29.62 "Hg3 mi
3:53 PM58 °FLight rain. More clouds than sun.13 mph93%29.53 "Hg10 mi
2:53 PM58 °FMore clouds than sun.7 mph93%29.51 "Hg10 mi
1:53 PM58 °FMostly cloudy.6 mph93%29.52 "Hg10 mi
12:53 PM57 °FCloudy.7 mph93%29.55 "Hg10 mi
11:53 AM57 °FCloudy.3 mph90%29.57 "Hg7 mi
10:53 AM55 °FCloudy.8 mph96%29.60 "Hg10 mi
9:53 AM55 °FMore clouds than sun.5 mph93%29.57 "Hg10 mi
8:53 AM53 °FRain. Fog.6 mph96%29.65 "Hg1 mi
8:01 AM52 °FRain. Fog.6 mph100%29.65 "Hg2 mi
7:54 AM53 °FRain. Fog.5 mph96%29.66 "Hg1 mi
6:53 AM52 °FLight rain. Fog.7 mph100%29.62 "Hg2 mi
5:53 AM52 °FLight rain. Fog.6 mph100%29.64 "Hg0 mi
4:57 AM52 °FLight rain. Fog.3 mph100%29.68 "Hg3 mi
3:53 AM52 °FLight rain. Mostly cloudy.5 mph100%29.69 "Hg10 mi
2:53 AM52 °FLight rain. Fog.3 mph97%29.70 "Hg6 mi
1:53 AM52 °FLight rain. Fog.9 mph97%29.72 "Hg1 mi
12:53 AM52 °FLight rain. Fog.6 mph97%29.77 "Hg6 mi
11:53 PM
Dec 23
52 °FLight rain. Fog.10 mph100%29.76 "Hg3 mi
10:59 PM52 °FLight rain. Fog.6 mph100%29.81 "Hg3 mi
Weather by CustomWeather, © 2014

See weather overviewHow to use our weather pages